Regional Weather Roundup
Issued by NWS Charleston, WV

Home | Current Version | Previous Version | Graphics & Text | Print | Product List | Glossary On
Versions: 1 2 3 4 5 6 7 8 9 10 11 12 13 14 15 16 17 18 19 20 21 22 23 24 25 26 27 28
000
ASUS41 KRLX 250910
RWRRLX
West Virginia Regional Weather Roundup
National Weather Service Charleston WV
500 AM EDT MON JUL 25 2016

Note: "fair" indicates few or no clouds below 12,000 feet with no
significant weather and/or obstructions to visibility.

WVZ003-251000-
Northern Panhandle of West Virginia

CITY           SKY/WX    TMP DP  RH WIND       PRES   REMARKS
WHEELING         N/A     74  69  85 S6        30.00S
$$

WVZ009-251000-
Northwest West Virginia

CITY           SKY/WX    TMP DP  RH WIND       PRES   REMARKS
PARKERSBURG      N/A     76  74  93 CALM      30.02S FOG
$$

WVZ006-251000-
Western West Virginia

CITY           SKY/WX    TMP DP  RH WIND       PRES   REMARKS
HUNTINGTON       N/A     77  75  93 SW3       30.01S
$$

WVZ015-251000-
West Central West Virginia

CITY           SKY/WX    TMP DP  RH WIND       PRES   REMARKS
CHARLESTON       N/A     75  72  90 CALM      30.02S
$$

WVZ022-031-251000-
North Central West Virginia

CITY           SKY/WX    TMP DP  RH WIND       PRES   REMARKS
CLARKSBURG       N/A     73  71  93 CALM      30.03R
MORGANTOWN       N/A     73  70  90 CALM      30.03S
$$

WVZ025-035-042-045-251000-
Southern West Virginia

CITY           SKY/WX    TMP DP  RH WIND       PRES   REMARKS
BECKLEY          N/A     71  66  84 CALM      30.13S
LOGAN          FOG       73  73 100 CALM      30.06S VSB<1/4
BLUEFIELD        N/A     70  65  84 W5        30.16S
LEWISBURG        N/A     65  64  98 CALM      30.13R FOG
$$

WVZ047-251000-
Northern Mountains of West Virginia

CITY           SKY/WX    TMP DP  RH WIND       PRES   REMARKS
ELKINS           N/A     69  67  93 CALM      30.10S FOG
$$

WVZ052-251000-
Eastern Panhandle of West Virginia

CITY           SKY/WX    TMP DP  RH WIND       PRES   REMARKS
MARTINSBURG      N/A     72  70  93 CALM      29.98S
PETERSBURG       N/A     72  71  96 NW3       30.03R FOG
$$




USA.gov is the U.S. government's official web portal to all federal, state and local government web resources and services.